Weather History for MMTO - October, 2013

Change the Weather History Date:

Tuesday, October 1, 2013

  Actual Average Record
Temperature  
Mean Temperature 58 °F -  
Max Temperature 69 °F 67 °F 73 °F (2002)
Min Temperature 48 °F 46 °F 33 °F (2008)
Degree Days  
Heating Degree Days 6    
Growing Degree Days 8 (Base 50)    
Moisture  
Dew Point 48 °F    
Average Humidity 74    
Maximum Humidity 88    
Minimum Humidity 38    
Precipitation  
Precipitation 0.00 in - - ()
Sea Level Pressure  
Sea Level Pressure 30.17 in    
Wind  
Wind Speed 3 mph ()    
Max Wind Speed 13 mph    
Max Gust Speed -    
Visibility 4.2 miles    
Events      
Averages and records for this station are not official NWS values.
T = Trace of Precipitation, MM = Missing Value Source: Averaged Metar Reports

Daily Weather History Graph

Daily Weather History Graph

Search for Another Location

Airport or City:

Trip Planner

Search our weather history database for the weather conditions in past years. The results will help you decide how hot, cold, wet, or windy it might be!

Date:

Astronomy

Oct. 01, 2013 Rise Set
Actual Time 7:29 AM CDT 7:26 PM CDT
Civil Twilight 7:07 AM CDT 7:48 PM CDT
Nautical Twilight 6:41 AM CDT 8:13 PM CDT
Astronomical Twilight 6:16 AM CDT 8:39 PM CDT
Moon 4:28 AM CDT (10/1) 5:11 PM CDT (10/1)
Length of Visible Light 12h 41m
Length of Day
11h 57m
Waning Crescent, 12% of the Moon is Illuminated
Oct 1
Waning Crescent
Oct 4
New
Oct 11
First Quarter
Oct 18
Full
Oct 26
Last Quarter

Hourly Weather History & Observations

Time (CDT) Temp. Dew Point Humidity Pressure Visibility Wind Dir Wind Speed Gust Speed Precip Events Conditions
12:47 AM 53.6 °F 50.0 °F 88% 29.79 in 4.0 mi East 3.5 mph - N/A   Mostly Cloudy
1:43 AM 53.6 °F 50.0 °F 88% 30.37 in 4.0 mi SE 3.5 mph - N/A   Mostly Cloudy
2:45 AM 51.8 °F 48.2 °F 88% 30.35 in 3.0 mi Calm Calm - N/A   Mostly Cloudy
3:47 AM 50.0 °F 46.4 °F 87% 29.75 in 3.0 mi Calm Calm - N/A   Overcast
4:42 AM 50.0 °F 46.4 °F 87% 30.30 in 3.0 mi Calm Calm - N/A   Overcast
5:42 AM 48.2 °F 44.6 °F 87% 30.33 in 2.0 mi ESE 5.8 mph - N/A   Overcast
6:45 AM 50.0 °F 46.4 °F 87% 29.84 in 2.0 mi Calm Calm - N/A   Mostly Cloudy
7:44 AM 48.2 °F 44.6 °F 87% 30.37 in 2.0 mi Calm Calm - N/A   Overcast
8:03 AM 48.2 °F 44.6 °F 87% 30.38 in 2.0 mi Calm Calm - N/A   Mist
8:45 AM 50.0 °F 46.4 °F 87% 30.39 in 2.0 mi NW 4.6 mph - N/A   Mist
9:45 AM 51.8 °F 48.2 °F 88% 29.91 in 2.0 mi NNW 3.5 mph - N/A   Mostly Cloudy
10:45 AM 59.0 °F 50.0 °F 72% 30.43 in 2.0 mi Calm Calm - N/A   Haze
11:50 AM 60.8 °F 50.0 °F 68% 30.41 in 4.0 mi Calm Calm - N/A   Scattered Clouds
12:47 PM 66.2 °F 48.2 °F 52% 29.78 in 5.0 mi West 5.8 mph - N/A   Mostly Cloudy
1:43 PM 66.2 °F 48.2 °F 52% 30.36 in 6.0 mi NW 10.4 mph - N/A   Mostly Cloudy
2:44 PM 68.0 °F 44.6 °F 43% 30.32 in 7.0 mi WNW 3.5 mph - N/A   Scattered Clouds
3:44 PM 68.0 °F 44.6 °F 43% 29.71 in 7.0 mi SSW 5.8 mph - N/A   Scattered Clouds
4:44 PM 69.8 °F 42.8 °F 38% 30.27 in 7.0 mi NNW 3.5 mph - N/A   Scattered Clouds
5:45 PM 68.0 °F 42.8 °F 40% 30.27 in 7.0 mi NE 9.2 mph - N/A   Mostly Cloudy
6:45 PM 64.4 °F 51.8 °F 64% 29.73 in 7.0 mi SE 12.7 mph - N/A   Mostly Cloudy
7:44 PM 59.0 °F 51.8 °F 77% 30.31 in 5.0 mi SSE 6.9 mph - N/A   Mostly Cloudy
8:41 PM 59.0 °F 51.8 °F 77% 30.34 in 5.0 mi SE 6.9 mph - N/A   Mostly Cloudy
9:45 PM 57.2 °F 51.8 °F 82% 29.86 in 5.0 mi ESE 4.6 mph - N/A   Scattered Clouds
10:45 PM 55.4 °F 51.8 °F 88% 30.39 in 5.0 mi Calm Calm - N/A   Scattered Clouds
11:45 PM 53.6 °F 48.2 °F 82% 30.38 in 5.0 mi NE 3.5 mph - N/A   Scattered Clouds